• In Portugal
  • List of Countries
  • For 7 days
  • Water Temperature
  • Satellite Maps
  • Weather Map
  • Weather Widgets
  • user-avatar
    Login

    Hourly Weather Michalowka

    Today, 23 October, Tuesday

    Time Temperature Precipitation Wind Pressure Humidity
    00:00 +4°C° 0 mm 3 mps 748 mmHg 90%
    01:00 +4°C° 0 mm 3 mps 748 mmHg 90%
    02:00 +3°C° 0 mm 3 mps 748 mmHg 90%
    03:00 +3°C° 0 mm 3 mps 747 mmHg 90%
    04:00 +3°C° 0 mm 4 mps 746 mmHg 90%
    05:00 +3°C° 0 mm 4 mps 745 mmHg 90%
    06:00 +3°C° 0.1 mm 5 mps 744 mmHg 88%
    07:00 +3°C° 0.1 mm 5 mps 743 mmHg 86%
    08:00 +3°C° 0.1 mm 6 mps 742 mmHg 85%
    09:00 +4°C° 0.5 mm 7 mps 741 mmHg 82%
    10:00 +4°C° 0.5 mm 8 mps 739 mmHg 80%
    11:00 +4°C° 0.5 mm 8 mps 738 mmHg 78%
    12:00 +3°C° 1.1 mm 9 mps 736 mmHg 79%
    13:00 +3°C° 1.1 mm 9 mps 735 mmHg 79%
    14:00 +3°C° 1.1 mm 9 mps 733 mmHg 80%
    15:00 +5°C° 0.9 mm 9 mps 732 mmHg 81%
    16:00 +5°C° 0.9 mm 8 mps 731 mmHg 83%
    17:00 +6°C° 0.9 mm 8 mps 729 mmHg 84%
    18:00 +6°C° 0.3 mm 7 mps 729 mmHg 83%
    19:00 +5°C° 0.3 mm 6 mps 728 mmHg 82%
    20:00 +5°C° 0.3 mm 6 mps 728 mmHg 82%
    21:00 +5°C° 0.3 mm 6 mps 727 mmHg 82%
    22:00 +6°C° 0.3 mm 5 mps 727 mmHg 82%
    23:00 +6°C° 0.3 mm 5 mps 727 mmHg 82%

    Tomorrow, 24 October, Wednesday

    Time Temperature Precipitation Wind Pressure Humidity
    00:00 +5°C° 0.4 mm 5 mps 726 mmHg 82%
    01:00 +5°C° 0.4 mm 5 mps 726 mmHg 83%
    02:00 +5°C° 0.4 mm 4 mps 725 mmHg 83%
    03:00 +3°C° 0.5 mm 5 mps 725 mmHg 84%
    04:00 +3°C° 0.5 mm 5 mps 725 mmHg 84%
    05:00 +3°C° 0.5 mm 5 mps 724 mmHg 84%
    06:00 +3°C° 0.3 mm 6 mps 725 mmHg 81%
    07:00 +2°C° 0.3 mm 6 mps 725 mmHg 77%
    08:00 +2°C° 0.3 mm 7 mps 725 mmHg 74%
    09:00 +1°C° 0.8 mm 8 mps 725 mmHg 75%
    10:00 +2°C° 0.8 mm 9 mps 725 mmHg 76%
    11:00 +2°C° 0.8 mm 10 mps 725 mmHg 76%
    12:00 +3°C° 1.3 mm 10 mps 725 mmHg 76%
    13:00 +4°C° 1.3 mm 11 mps 725 mmHg 76%
    14:00 +6°C° 1.3 mm 11 mps 726 mmHg 75%
    15:00 +4°C° 0.5 mm 11 mps 727 mmHg 76%
    16:00 +5°C° 0.5 mm 10 mps 728 mmHg 77%
    17:00 +5°C° 0.5 mm 10 mps 729 mmHg 77%
    18:00 +5°C° 0.5 mm 10 mps 730 mmHg 78%
    19:00 +5°C° 0.5 mm 9 mps 732 mmHg 79%
    20:00 +3°C° 0.5 mm 9 mps 733 mmHg 79%
    21:00 +3°C° 0.1 mm 9 mps 734 mmHg 79%
    22:00 +4°C° 0.1 mm 8 mps 735 mmHg 78%
    23:00 +4°C° 0.1 mm 8 mps 735 mmHg 78%

    Day after tomorrow, 25 October, Thursday

    Time Temperature Precipitation Wind Pressure Humidity
    00:00 +3°C° 0 mm 7 mps 736 mmHg 79%
    01:00 +2°C° 0 mm 6 mps 736 mmHg 80%
    02:00 +2°C° 0 mm 6 mps 737 mmHg 81%
    03:00 +2°C° 0 mm 5 mps 737 mmHg 83%
    04:00 +2°C° 0 mm 5 mps 737 mmHg 84%
    05:00 +1°C° 0 mm 4 mps 737 mmHg 85%
    06:00 +1°C° 0 mm 4 mps 736 mmHg 85%
    07:00 +1°C° 0 mm 4 mps 736 mmHg 86%
    08:00 +2°C° 0 mm 3 mps 736 mmHg 86%
    09:00 +3°C° 0.2 mm 4 mps 735 mmHg 83%
    10:00 +4°C° 0.2 mm 4 mps 734 mmHg 79%
    11:00 +4°C° 0.2 mm 4 mps 733 mmHg 76%
    12:00 +4°C° 0.7 mm 4 mps 733 mmHg 78%
    13:00 +4°C° 0.7 mm 3 mps 732 mmHg 80%
    14:00 +3°C° 0.7 mm 3 mps 731 mmHg 82%
    15:00 +4°C° 0.2 mm 2 mps 732 mmHg 83%
    16:00 +5°C° 0.2 mm 1 mps 732 mmHg 84%
    17:00 +5°C° 0.2 mm 1 mps 732 mmHg 85%
    18:00 +5°C° 0 mm 1 mps 733 mmHg 87%
    19:00 +4°C° 0 mm 1 mps 734 mmHg 89%
    20:00 +4°C° 0 mm 1 mps 734 mmHg 91%
    21:00 +2°C° 0 mm 2 mps 735 mmHg 92%
    22:00 +2°C° 0 mm 2 mps 735 mmHg 93%
    23:00 +2°C° 0 mm 2 mps 735 mmHg 94%

    26 October, Friday

    Time Temperature Precipitation Wind Pressure Humidity
    00:00 +2°C° 0 mm 2 mps 736 mmHg 94%
    01:00 +2°C° 0 mm 2 mps 736 mmHg 95%
    02:00 +2°C° 0 mm 2 mps 736 mmHg 95%
    03:00 +2°C° 0.1 mm 3 mps 737 mmHg 94%
    04:00 +2°C° 0.1 mm 3 mps 737 mmHg 93%
    05:00 +3°C° 0.1 mm 3 mps 737 mmHg 92%
    06:00 +2°C° 0 mm 3 mps 737 mmHg 92%
    07:00 +2°C° 0 mm 3 mps 737 mmHg 92%
    08:00 +2°C° 0 mm 3 mps 738 mmHg 92%
    09:00 +3°C° 0 mm 3 mps 738 mmHg 86%
    10:00 +5°C° 0 mm 4 mps 738 mmHg 80%
    11:00 +6°C° 0 mm 4 mps 739 mmHg 73%
    12:00 +7°C° 0 mm 4 mps 739 mmHg 71%
    13:00 +8°C° 0 mm 3 mps 739 mmHg 69%
    14:00 +9°C° 0 mm 3 mps 739 mmHg 66%
    15:00 +8°C° 0 mm 3 mps 739 mmHg 72%
    16:00 +7°C° 0 mm 2 mps 739 mmHg 77%
    17:00 +7°C° 0 mm 2 mps 739 mmHg 83%
    18:00 +6°C° 0 mm 2 mps 739 mmHg 84%
    19:00 +5°C° 0 mm 3 mps 739 mmHg 86%
    20:00 +5°C° 0 mm 3 mps 739 mmHg 88%
    21:00 +5°C° 0 mm 3 mps 739 mmHg 87%
    22:00 +4°C° 0 mm 4 mps 738 mmHg 86%
    23:00 +4°C° 0 mm 4 mps 738 mmHg 85%

    27 October, Saturday

    Time Temperature Precipitation Wind Pressure Humidity
    00:00 +5°C° 0.3 mm 5 mps 737 mmHg 86%
    01:00 +5°C° 0.3 mm 5 mps 737 mmHg 86%
    02:00 +4°C° 0.3 mm 6 mps 736 mmHg 87%
    03:00 +4°C° 0.1 mm 6 mps 736 mmHg 87%
    04:00 +5°C° 0.1 mm 6 mps 735 mmHg 88%
    05:00 +5°C° 0.1 mm 6 mps 735 mmHg 88%
    06:00 +5°C° 0.2 mm 6 mps 734 mmHg 88%
    07:00 +5°C° 0.2 mm 6 mps 734 mmHg 89%
    08:00 +7°C° 0.2 mm 6 mps 734 mmHg 89%
    09:00 +7°C° 0.1 mm 6 mps 734 mmHg 87%
    10:00 +8°C° 0.1 mm 6 mps 734 mmHg 84%
    11:00 +8°C° 0.1 mm 6 mps 734 mmHg 82%
    12:00 +8°C° 0 mm 6 mps 735 mmHg 77%
    13:00 +8°C° 0 mm 6 mps 735 mmHg 72%
    14:00 +8°C° 0 mm 5 mps 735 mmHg 67%
    15:00 +8°C° 0 mm 5 mps 735 mmHg 69%
    16:00 +7°C° 0 mm 4 mps 735 mmHg 70%
    17:00 +7°C° 0 mm 3 mps 735 mmHg 71%
    18:00 +7°C° 0 mm 3 mps 736 mmHg 72%
    19:00 +5°C° 0 mm 3 mps 736 mmHg 72%
    20:00 +5°C° 0 mm 3 mps 736 mmHg 72%
    21:00 +5°C° 0 mm 3 mps 736 mmHg 74%
    22:00 +4°C° 0 mm 3 mps 736 mmHg 76%
    23:00 +4°C° 0 mm 3 mps 736 mmHg 77%

    28 October, Sunday

    Time Temperature Precipitation Wind Pressure Humidity
    00:00 +3°C° 0 mm 3 mps 736 mmHg 78%
    01:00 +3°C° 0 mm 3 mps 736 mmHg 79%
    02:00 +3°C° 0 mm 3 mps 736 mmHg 79%
    03:00 +3°C° 0 mm 3 mps 736 mmHg 80%
    04:00 +4°C° 0 mm 2 mps 736 mmHg 80%
    05:00 +4°C° 0 mm 2 mps 736 mmHg 80%
    06:00 +4°C° 0 mm 2 mps 736 mmHg 80%
    07:00 +4°C° 0 mm 2 mps 736 mmHg 80%
    08:00 +4°C° 0 mm 2 mps 736 mmHg 80%
    09:00 +5°C° 0.1 mm 2 mps 736 mmHg 78%
    10:00 +5°C° 0.1 mm 2 mps 736 mmHg 75%
    11:00 +6°C° 0.1 mm 2 mps 736 mmHg 73%
    12:00 +6°C° 0.1 mm 2 mps 736 mmHg 73%
    13:00 +5°C° 0.1 mm 3 mps 736 mmHg 73%
    14:00 +5°C° 0.1 mm 3 mps 736 mmHg 74%
    15:00 +5°C° 0.2 mm 3 mps 736 mmHg 76%
    16:00 +5°C° 0.2 mm 4 mps 736 mmHg 78%
    17:00 +4°C° 0.2 mm 4 mps 737 mmHg 80%
    18:00 +4°C° 0.1 mm 4 mps 737 mmHg 80%
    19:00 +3°C° 0.1 mm 5 mps 738 mmHg 81%
    20:00 +3°C° 0.1 mm 5 mps 738 mmHg 81%
    21:00 +3°C° 0 mm 5 mps 739 mmHg 81%
    22:00 +2°C° 0 mm 5 mps 739 mmHg 81%
    23:00 +2°C° 0 mm 5 mps 740 mmHg 81%

    29 October, Monday

    Time Temperature Precipitation Wind Pressure Humidity
    00:00 +2°C° 0 mm 5 mps 741 mmHg 81%
    01:00 +1°C° 0 mm 5 mps 741 mmHg 80%
    02:00 +1°C° 0 mm 5 mps 742 mmHg 80%
    03:00 +1°C° 0 mm 5 mps 742 mmHg 80%
    04:00 0°C° 0 mm 5 mps 742 mmHg 80%
    05:00 0°C° 0 mm 4 mps 743 mmHg 80%
    06:00 0°C° 0 mm 4 mps 743 mmHg 80%
    07:00 0°C° 0 mm 4 mps 744 mmHg 79%
    08:00 -1°C° 0 mm 4 mps 744 mmHg 78%
    09:00 +1°C° 0 mm 5 mps 745 mmHg 76%
    10:00 +2°C° 0 mm 5 mps 745 mmHg 73%
    11:00 +3°C° 0 mm 5 mps 746 mmHg 71%
    12:00 +5°C° 0 mm 5 mps 746 mmHg 69%
    13:00 +5°C° 0 mm 4 mps 747 mmHg 67%
    14:00 +6°C° 0 mm 4 mps 747 mmHg 66%
    15:00 +5°C° 0 mm 3 mps 747 mmHg 69%
    16:00 +5°C° 0 mm 2 mps 747 mmHg 72%
    17:00 +4°C° 0 mm 2 mps 747 mmHg 75%
    18:00 +4°C° 0 mm 2 mps 747 mmHg 77%
    19:00 +3°C° 0 mm 2 mps 747 mmHg 79%
    20:00 +3°C° 0 mm 2 mps 747 mmHg 81%
    21:00 +3°C° 0 mm 2 mps 747 mmHg 80%
    22:00 +3°C° 0 mm 2 mps 747 mmHg 80%
    23:00 +3°C° 0 mm 2 mps 747 mmHg 80%
    Show more